This is the latest recevied weather packets stored in our database for station/object WD7OO. If no packets are shown the sender has not sent any weather packets the latest 10 day(s).
| Time | Temp. | Humidity | Pressure | Rain* | Wind** | Luminosity | Snow |
|---|---|---|---|---|---|---|---|
| 1788284964 | 32.22° C | 73% | 1016.2 hPa | 0 mm | - | 682 W/m² | - |
| 1788284660 | 31.67° C | 75% | 1016.5 hPa | 0 mm | - | 646 W/m² | - |
| 1788284356 | 32.22° C | 73% | 1016.6 hPa | 0 mm | - | 704 W/m² | - |
| 1788284050 | 31.67° C | 73% | 1016.5 hPa | 0 mm | - | 733 W/m² | - |
| 1788283747 | 31.67° C | 74% | 1016.5 hPa | 0 mm | - | 362 W/m² | - |
| 1788283441 | 31.67° C | 76% | 1016.5 hPa | 0 mm | - | 481 W/m² | - |
| 1788283140 | 31.67° C | 75% | 1016.2 hPa | 0 mm | - | 720 W/m² | - |
| 1788282838 | 31.11° C | 76% | 1016.4 hPa | 0 mm | - | 533 W/m² | - |
| 1788282536 | 30.56° C | 75% | 1016.1 hPa | 0 mm | - | 439 W/m² | - |
| 1788282232 | 31.11° C | 75% | 1016.3 hPa | 0 mm | - | 562 W/m² | - |
| 1788281926 | 31.11° C | 76% | 1016.4 hPa | 0 mm | - | 665 W/m² | - |
| 1788281620 | 31.11° C | 76% | 1016.2 hPa | 0 mm | - | 689 W/m² | - |
| 1788281316 | 31.11° C | 77% | 1016.5 hPa | 0 mm | - | 747 W/m² | - |
| 1788281006 | 31.11° C | 78% | 1016.5 hPa | 0 mm | - | 724 W/m² | - |
| 1788280706 | 30.56° C | 76% | 1016.6 hPa | 0 mm | - | 738 W/m² | - |
| 1788280401 | 30.56° C | 76% | 1016.5 hPa | 0 mm | - | 465 W/m² | - |
| 1788280096 | 30.56° C | 76% | 1016.3 hPa | 0 mm | - | 688 W/m² | - |
| 1788279795 | 30° C | 77% | 1016.4 hPa | 0 mm | - | 703 W/m² | - |
| 1788279494 | 30° C | 77% | 1016.6 hPa | 0 mm | - | 683 W/m² | - |
| 1788279189 | 29.44° C | 77% | 1016.4 hPa | 0 mm | - | 680 W/m² | - |
| 1788278884 | 30° C | 79% | 1016.4 hPa | 0 mm | - | 705 W/m² | - |
| 1788278581 | 29.44° C | 76% | 1016.3 hPa | 0 mm | - | 683 W/m² | - |
| 1788278279 | 29.44° C | 78% | 1016.4 hPa | 0 mm | - | 652 W/m² | - |
| 1788277974 | 29.44° C | 79% | 1016.3 hPa | 0 mm | - | 692 W/m² | - |
| 1788277670 | 28.89° C | 80% | 1016.2 hPa | 0 mm | - | 704 W/m² | - |
* Rain latest hour (hover to see other rain measurements)
** Current wind speed in m/s (hover to see current wind gust speed)